Date,TemperatureHighF,TemperatureAvgF,TemperatureLowF,DewpointHighF,DewpointAvgF,DewpointLowF,HumidityHigh,HumidityAvg,HumidityLow,PressureMaxIn,PressureMinIn,WindSpeedMaxMPH,WindSpeedAvgMPH,GustSpeedMaxMPH,PrecipitationSumIn
2013-2-1,94.6,89.8,82.9,81.1,79.1,76.6,85,71,59,29.56,29.44,10,2,10,0.00
2013-2-2,99.3,91.8,84.4,79.0,73.9,70.2,67,57,45,29.53,29.44,34,4,34,0.00
2013-2-3,99.0,88.4,77.4,75.1,71.7,68.5,80,59,40,29.62,29.44,8,2,8,0.00
2013-2-4,92.8,84.6,80.8,79.3,73.8,72.4,77,71,58,29.62,29.56,8,2,8,0.00
2013-2-5,94.1,91.1,86.4,74.3,69.7,66.9,66,50,43,29.71,29.59,11,4,11,0.00
2013-2-6,92.8,89.7,79.9,73.9,70.7,67.8,71,54,45,29.62,29.56,10,7,10,0.00
2013-2-7,92.5,85.7,78.4,72.9,70.0,67.5,75,60,48,29.65,29.50,13,4,13,0.00
2013-2-8,91.4,86.6,76.8,75.1,72.3,68.3,76,63,55,29.65,29.56,10,6,10,0.00
2013-2-9,91.0,86.7,77.9,78.2,75.5,72.7,89,70,60,29.65,29.53,7,4,7,0.00
2013-2-10,88.3,84.2,80.6,75.8,74.8,73.4,84,74,66,29.62,29.56,8,1,8,0.00
2013-2-11,91.0,83.5,76.5,77.4,74.7,72.4,88,76,62,29.65,29.53,8,2,8,0.00
2013-2-12,89.2,84.8,81.3,77.1,73.7,71.2,76,69,65,29.59,29.53,8,4,8,0.00
2013-2-13,89.2,81.8,74.8,75.9,72.9,69.0,84,75,64,29.59,29.56,3,1,3,0.00
2013-2-14,90.0,88.5,87.1,77.9,76.3,74.4,71,67,64,29.53,29.50,5,3,5,0.00
2013-2-15,91.9,85.4,79.7,78.0,75.8,74.1,87,73,63,29.56,29.44,6,4,6,0.00
2013-2-18,89.4,86.5,83.3,77.9,77.3,76.7,82,74,67,29.44,29.38,8,2,8,0.00
2013-2-19,90.7,83.0,79.0,80.3,76.8,74.9,89,82,67,29.53,29.41,8,1,8,0.04
2013-2-20,92.3,87.5,79.9,80.1,78.0,75.8,89,74,66,29.53,29.41,10,2,10,0.00
2013-2-21,91.6,85.3,78.8,80.6,77.5,73.1,85,78,67,29.47,29.44,11,3,11,0.41
2013-2-22,91.2,84.3,78.4,79.5,75.3,72.4,85,75,67,29.53,29.44,13,2,13,0.33
2013-2-23,78.3,77.5,76.8,74.4,74.0,73.5,91,89,87,29.50,29.44,4,0,4,0.00
2013-2-24,87.4,81.6,75.4,79.3,75.3,71.6,88,81,74,29.56,29.47,7,3,7,0.04
2013-2-25,85.1,82.7,77.7,75.7,74.9,73.9,88,77,71,29.56,29.47,5,2,5,0.00
2013-2-26,91.9,86.4,78.1,77.2,74.8,73.2,86,69,61,29.53,29.38,8,2,8,0.00
2013-2-27,95.9,88.1,78.4,79.4,76.9,72.1,82,70,57,29.47,29.32,6,2,6,0.00
2013-2-28,86.5,84.5,81.9,80.6,79.7,78.1,89,86,80,29.47,29.35,8,0,8,0.63